FW4628 Weather Reports


Display with metric or nautical units.
time (UTC)temp
F
wind
direction
speed
MPH
gust
MPH
rain 1hr
in
rain 24hr
in
rain mn
in
humidity
%
barometer
mb
20260510052420 69 17 0.0 0.0 0.00 0.00 0.00 55 1005.7
20260510052015 68 9 0.0 0.0 0.00 0.00 0.00 55 1005.6
20260510051910 69 5 0.0 0.0 0.00 0.00 0.00 55 1005.7
20260510051548 68 355 0.0 0.0 0.00 0.00 0.00 55 1005.6
20260510051406 69 28 0.0 0.0 0.00 0.00 0.00 55 1005.7
20260510051023 69 14 0.0 0.0 0.00 0.00 0.00 54 1005.7
20260510050858 69 30 0.0 0.0 0.00 0.00 0.00 54 1005.8
20260510050543 69 5 0.0 0.0 0.00 0.00 0.00 54 1005.7
20260510050441 69 360 0.0 0.0 0.00 0.00 0.00 54 1005.8
20260510050059 69 11 0.0 0.0 0.00 0.00 0.00 54 1005.7
20260510045914 69 15 0.0 0.0 0.00 0.00 0.00 54 1005.8
20260510045534 69 317 0.0 0.0 0.00 0.00 0.00 54 1005.8
20260510045413 70 19 0.0 0.0 0.00 0.00 0.00 54 1005.8
20260510045003 69 346 0.0 0.0 0.00 0.00 0.00 54 1005.6
20260510044908 70 346 0.0 0.0 0.00 0.00 0.00 54 1005.7
20260510044550 69 360 0.0 0.0 0.00 0.00 0.00 54 1005.6
20260510044423 70 346 0.0 0.0 0.00 0.00 0.00 54 1005.6
20260510044005 69 301 0.0 0.0 0.00 0.00 0.00 54 1005.6
20260510043912 70 321 0.0 0.0 0.00 0.00 0.00 54 1005.6
20260510043539 70 338 0.0 0.0 0.00 0.00 0.00 54 1005.5
20260510043406 70 311 0.0 0.0 0.00 0.00 0.00 53 1005.6
20260510043015 70 338 0.0 0.0 0.00 0.00 0.00 53 1005.5
20260510042948 70 338 0.0 0.0 0.00 0.00 0.00 53 1005.5
20260510042519 70 336 0.0 0.0 0.00 0.00 0.00 53 1005.4
20260510042419 70 327 0.0 0.0 0.00 0.00 0.00 53 1005.4
20260510042033 70 311 0.0 0.0 0.00 0.00 0.00 53 1005.3
20260510041926 70 14 0.0 0.0 0.00 0.00 0.00 53 1005.3
20260510041509 70 340 0.0 0.0 0.00 0.00 0.00 53 1005.1
20260510041421 70 5 0.0 0.0 0.00 0.00 0.00 53 1005.2
20260510041039 70 28 0.0 0.0 0.00 0.00 0.00 52 1005.1
20260510040913 71 20 0.0 0.0 0.00 0.00 0.00 52 1005.2
20260510040511 70 17 0.0 0.0 0.00 0.00 0.00 52 1005.0
20260510040410 71 360 0.0 0.0 0.00 0.00 0.00 52 1005.1
20260510040104 70 355 0.0 0.0 0.00 0.00 0.00 52 1005.0
20260510035930 71 355 0.0 0.0 0.00 0.00 0.00 51 1005.0
20260510035556 70 342 0.0 0.0 0.00 0.00 0.00 51 1004.9
20260510035405 71 360 0.0 0.0 0.00 0.00 0.00 51 1005.0
20260510035031 71 22 0.0 0.0 0.00 0.00 0.00 51 1004.9
20260510034859 71 355 0.0 0.0 0.00 0.00 0.00 51 1004.9
20260510034620 71 5 0.0 0.0 0.00 0.00 0.00 50 1004.9
20260510034444 71 24 0.0 0.0 0.00 0.00 0.00 50 1004.9
20260510034004 71 360 0.0 0.0 0.00 0.00 0.00 50 1004.8
20260510033912 71 31 0.0 0.0 0.00 0.00 0.00 50 1004.8
20260510033535 71 19 0.0 0.0 0.00 0.00 0.00 50 1004.8
20260510033433 71 5 0.0 0.0 0.00 0.00 0.00 50 1004.8
20260510033052 71 16 0.0 0.0 0.00 0.00 0.00 49 1004.7
20260510032902 72 344 0.0 0.0 0.00 0.00 0.00 49 1004.7
20260510032515 71 360 0.0 0.0 0.00 0.00 0.00 49 1004.7
20260510032424 72 14 0.0 0.0 0.00 0.00 0.00 49 1004.8
20260510032047 71 355 0.0 0.0 0.00 0.00 0.00 49 1004.7
20260510031916 72 338 0.0 0.0 0.00 0.00 0.00 49 1004.7
20260510031531 72 13 0.0 0.0 0.00 0.00 0.00 49 1004.7
20260510031405 72 360 0.0 0.0 0.00 0.00 0.00 49 1004.7
20260510031057 72 355 0.0 0.0 0.00 0.00 0.00 49 1004.7
20260510030904 72 360 0.0 0.0 0.00 0.00 0.00 49 1004.7
20260510030512 72 5 0.0 0.0 0.00 0.00 0.00 48 1004.8
20260510030428 72 355 0.0 0.0 0.00 0.00 0.00 48 1004.7
20260510030039 72 17 0.0 0.0 0.00 0.00 0.00 48 1004.7
20260510025916 73 21 0.0 0.0 0.00 0.00 0.00 48 1004.8
20260510025503 72 360 0.0 0.0 0.00 0.00 0.00 47 1004.7
20260510025406 73 10 0.0 0.0 0.00 0.00 0.00 47 1004.7
20260510025039 73 13 0.0 0.0 0.00 0.00 0.00 47 1004.6
20260510024901 73 18 0.0 0.0 0.00 0.00 0.00 46 1004.6
20260510024514 73 33 0.0 0.0 0.00 0.00 0.00 46 1004.6
20260510024424 73 26 0.0 0.0 0.00 0.00 0.00 46 1004.7
20260510024047 73 9 0.0 0.0 0.00 0.00 0.00 45 1004.7
20260510023919 74 19 0.0 0.0 0.00 0.00 0.00 45 1004.7
20260510023511 73 9 0.0 0.0 0.00 0.00 0.00 44 1004.6
20260510023407 74 355 0.0 0.0 0.00 0.00 0.00 44 1004.7
20260510023050 73 5 0.0 0.0 0.00 0.00 0.00 44 1004.7
20260510022923 74 348 0.0 0.0 0.00 0.00 0.00 44 1004.7
20260510022559 74 355 0.0 0.0 0.00 0.00 0.00 43 1004.7
20260510022421 74 355 0.0 0.0 0.00 0.00 0.00 43 1004.7
20260510022036 74 9 0.0 0.0 0.00 0.00 0.00 43 1004.7
20260510021916 74 17 0.0 0.0 0.00 0.00 0.00 43 1004.7
20260510021503 74 360 0.0 0.0 0.00 0.00 0.00 42 1004.7
20260510021414 75 17 0.0 0.0 0.00 0.00 0.00 42 1004.7
20260510021041 74 13 0.0 0.0 0.00 0.00 0.00 42 1004.7
20260510020912 75 27 0.0 0.0 0.00 0.00 0.00 42 1004.8
20260510020514 75 317 0.0 0.0 0.00 0.00 0.00 43 1004.8
20260510020412 75 29 0.0 0.0 0.00 0.00 0.00 42 1004.7
20260510020047 75 346 0.0 0.0 0.00 0.00 0.00 42 1004.7
20260510015900 75 360 0.0 0.0 0.00 0.00 0.00 42 1004.7
20260510015522 75 19 0.0 0.0 0.00 0.00 0.00 42 1004.7
20260510015406 76 9 0.0 0.0 0.00 0.00 0.00 42 1004.7
20260510015036 75 355 0.0 0.0 0.00 0.00 0.00 42 1004.8
20260510014900 76 5 0.0 0.0 0.00 0.00 0.00 42 1004.9
20260510014511 75 9 0.0 0.0 0.00 0.00 0.00 41 1004.8
20260510014422 76 346 0.0 0.0 0.00 0.00 0.00 41 1004.9
20260510014029 75 351 0.0 0.0 0.00 0.00 0.00 41 1004.9
20260510013925 76 346 0.0 0.0 0.00 0.00 0.00 41 1004.9
20260510013541 76 9 0.0 0.0 0.00 0.00 0.00 41 1004.9
20260510013416 76 17 0.0 0.0 0.00 0.00 0.00 40 1005.0
20260510013004 76 360 0.0 0.0 0.00 0.00 0.00 40 1005.0
20260510012907 77 5 0.0 0.0 0.00 0.00 0.00 40 1005.0
20260510012535 76 355 0.0 0.0 0.00 0.00 0.00 39 1005.0
20260510012403 77 360 0.0 0.0 0.00 0.00 0.00 39 1005.0
20260510012007 77 19 0.0 0.0 0.00 0.00 0.00 36 1005.1
20260510011859 78 355 0.0 0.0 0.00 0.00 0.00 36 1005.2
20260510011544 78 5 0.0 0.0 0.00 0.00 0.00 34 1005.1
20260510011400 78 355 0.0 0.0 0.00 0.00 0.00 34 1005.2
20260510011027 78 19 0.0 0.0 0.00 0.00 0.00 33 1005.1
20260510010907 79 360 0.0 0.0 0.00 0.00 0.00 32 1005.2
20260510010541 78 350 0.0 0.0 0.00 0.00 0.00 32 1005.1
20260510010405 79 38 0.0 0.0 0.00 0.00 0.00 32 1005.1
20260510010007 78 15 0.0 0.0 0.00 0.00 0.00 31 1005.0
20260510005857 79 19 0.0 0.0 0.00 0.00 0.00 32 1005.0
20260510005549 78 5 0.0 0.0 0.00 0.00 0.00 31 1005.1
20260510005402 79 5 0.0 0.0 0.00 0.00 0.00 31 1005.1
20260510005008 78 351 0.0 0.0 0.00 0.00 0.00 31 1005.1
20260510004927 79 355 0.0 0.0 0.00 0.00 0.00 31 1005.2
20260510004538 79 343 0.0 0.0 0.00 0.00 0.00 31 1005.2
20260510004416 79 17 0.0 0.0 0.00 0.00 0.00 31 1005.3
20260510004001 79 345 0.0 0.0 0.00 0.00 0.00 33 1005.1
20260510003912 80 292 0.0 0.0 0.00 0.00 0.00 33 1005.2
20260510003537 79 355 0.0 0.0 0.00 0.00 0.00 33 1005.2
20260510003413 80 5 0.0 0.0 0.00 0.00 0.00 33 1005.2
20260510003049 79 21 0.0 0.0 0.00 0.00 0.00 33 1005.2
20260510002906 80 5 0.0 0.0 0.00 0.00 0.00 33 1005.3
20260510002523 79 313 0.0 0.0 0.00 0.00 0.00 34 1005.2
20260510002358 80 304 0.0 0.0 0.00 0.00 0.00 33 1005.3
20260510002055 79 298 0.0 0.0 0.00 0.00 0.00 34 1005.3
20260510001901 79 360 0.0 0.0 0.00 0.00 0.00 34 1005.4
20260510001533 79 19 0.0 0.0 0.00 0.00 0.00 33 1005.2
20260510001359 79 348 0.0 0.0 0.00 0.00 0.00 33 1005.4
20260510001013 79 5 0.0 0.0 0.00 0.00 0.00 33 1005.2
20260510000927 79 61 0.0 0.0 0.00 0.00 0.00 32 1005.3
20260510000541 79 46 0.0 0.0 0.00 0.00 0.00 31 1005.4
20260510000413 80 38 0.0 0.0 0.00 0.00 0.00 31 1005.4
20260510000015 79 360 0.0 0.0 0.00 0.00 0.00 31 1005.4
20260509235906 80 351 0.0 0.0 0.00 0.00 0.00 31 1005.5
20260509235551 79 351 0.0 0.0 0.00 0.00 0.00 30 1005.5
20260509235427 80 348 0.0 0.0 0.00 0.00 0.00 30 1005.6
20260509235011 79 302 0.0 0.0 0.00 0.00 0.00 30 1005.5
20260509234918 80 350 0.0 0.0 0.00 0.00 0.00 31 1005.6
20260509234541 79 350 0.0 0.0 0.00 0.00 0.00 30 1005.5
20260509234409 79 350 0.0 0.0 0.00 0.00 0.00 31 1005.6
20260509234011 79 355 0.0 0.0 0.00 0.00 0.00 31 1005.6
20260509233928 79 355 0.0 0.0 0.00 0.00 0.00 31 1005.6
20260509233548 79 355 0.0 0.0 0.00 0.00 0.00 31 1005.6
20260509233420 80 5 0.0 0.0 0.00 0.00 0.00 30 1005.7
20260509233101 79 27 0.0 0.0 0.00 0.00 0.00 29 1005.7
20260509232924 80 347 0.0 0.0 0.00 0.00 0.00 30 1005.7
20260509232521 79 48 0.0 0.0 0.00 0.00 0.00 31 1005.7
20260509232412 79 355 0.0 0.0 0.00 0.00 0.00 32 1005.7
20260509232059 79 11 0.0 0.0 0.00 0.00 0.00 31 1005.8
20260509231906 79 19 0.0 0.0 0.00 0.00 0.00 30 1005.8
20260509231500 78 53 0.0 0.0 0.00 0.00 0.00 30 1005.9
20260509231356 79 57 0.0 0.0 0.00 0.00 0.00 32 1005.9
20260509231046 78 341 0.0 0.0 0.00 0.00 0.00 33 1005.9
20260509230923 78 37 0.0 0.0 0.00 0.00 0.00 33 1005.9
20260509230505 78 324 0.0 0.0 0.00 0.00 0.00 34 1005.9
20260509230411 78 340 0.0 0.0 0.00 0.00 0.00 34 1006.0
20260509230033 78 25 0.0 0.0 0.00 0.00 0.00 32 1006.0
20260509225859 78 63 0.0 0.0 0.00 0.00 0.00 31 1006.1
20260509225505 78 334 0.0 0.0 0.00 0.00 0.00 32 1006.2
20260509225420 78 360 0.0 0.0 0.00 0.00 0.00 32 1006.3
20260509225021 78 15 0.0 0.0 0.00 0.00 0.00 34 1006.4
20260509224923 78 50 0.0 0.0 0.00 0.00 0.00 33 1006.5
20260509224558 78 292 0.0 0.0 0.00 0.00 0.00 34 1006.4
20260509224416 78 292 0.0 0.0 0.00 0.00 0.00 34 1006.5
20260509224014 77 276 0.0 0.0 0.00 0.00 0.00 33 1006.5
20260509223902 78 276 0.0 0.0 0.00 0.00 0.00 35 1006.6
20260509223551 76 301 0.0 0.0 0.00 0.00 0.00 36 1006.5
20260509223422 77 19 0.0 0.0 0.00 0.00 0.00 36 1006.6
20260509223021 76 348 0.0 0.0 0.00 0.00 0.00 35 1006.7
20260509222912 76 348 0.0 0.0 0.00 0.00 0.00 35 1006.8
20260509222550 75 46 0.0 0.0 0.00 0.00 0.00 35 1006.8
20260509222405 76 46 0.0 0.0 0.00 0.00 0.00 35 1006.9
20260509222021 75 355 0.0 0.0 0.00 0.00 0.00 38 1006.9
20260509221857 75 355 0.0 0.0 0.00 0.00 0.00 38 1006.9
20260509221604 75 16 0.0 0.0 0.00 0.00 0.00 37 1007.0
20260509221421 75 5 0.0 0.0 0.00 0.00 0.00 38 1007.1
20260509221009 75 15 0.0 0.0 0.00 0.00 0.00 38 1007.1
20260509220926 75 35 0.0 0.0 0.00 0.00 0.00 38 1007.1
20260509220541 75 5 0.0 0.0 0.00 0.00 0.00 38 1007.1
20260509220416 75 10 0.0 0.0 0.00 0.00 0.00 38 1007.1
20260509220011 75 29 0.0 0.0 0.00 0.00 0.00 38 1007.2
20260509215913 75 57 0.0 0.0 0.00 0.00 0.00 38 1007.3
20260509215545 75 27 0.0 0.0 0.00 0.00 0.00 39 1007.2
20260509215403 75 19 0.0 0.0 0.00 0.00 0.00 38 1007.3
20260509215016 75 5 0.0 0.0 0.00 0.00 0.00 39 1007.3
20260509214925 75 15 0.0 0.0 0.00 0.00 0.00 39 1007.4
20260509214556 74 25 0.0 0.0 0.00 0.00 0.00 39 1007.4
20260509214412 75 14 0.0 0.0 0.00 0.00 0.00 39 1007.5
20260509214013 74 31 0.0 0.0 0.00 0.00 0.00 41 1007.4
20260509213907 74 9 0.0 0.0 0.00 0.00 0.00 41 1007.5
20260509213547 74 355 0.0 0.0 0.00 0.00 0.00 41 1007.5
20260509213425 74 15 0.0 0.0 0.00 0.00 0.00 41 1007.6
20260509213058 73 348 0.0 0.0 0.00 0.00 0.00 41 1007.6
20260509212917 74 46 0.0 0.0 0.00 0.00 0.00 40 1007.7
20260509212532 74 31 0.0 0.0 0.00 0.00 0.00 41 1007.7
20260509212412 74 349 0.0 0.0 0.00 0.00 0.00 41 1007.7
20260509212059 73 294 0.0 0.0 0.00 0.00 0.00 41 1007.7
20260509211903 74 304 0.0 0.0 0.00 0.00 0.00 42 1007.8
20260509211529 73 296 0.0 0.0 0.00 0.00 0.00 41 1007.8
20260509211447 74 296 0.0 0.0 0.00 0.00 0.00 41 1007.8
20260509211041 73 14 0.0 0.0 0.00 0.00 0.00 42 1007.7
20260509210918 74 288 0.0 0.0 0.00 0.00 0.00 41 1007.8
20260509210546 73 309 0.0 0.0 0.00 0.00 0.00 41 1007.8
20260509210437 74 306 0.0 0.0 0.00 0.00 0.00 42 1007.8
20260509210115 73 20 0.0 0.0 0.00 0.00 0.00 42 1007.7
20260509205907 73 13 0.0 0.0 0.00 0.00 0.00 42 1007.7
20260509205529 72 44 0.0 0.0 0.00 0.00 0.00 43 1007.8
20260509205357 73 342 0.0 0.0 0.00 0.00 0.00 44 1007.8
20260509205101 72 350 0.0 0.0 0.00 0.00 0.00 43 1007.8
20260509204919 73 347 0.0 0.0 0.00 0.00 0.00 43 1007.8
20260509204535 72 292 0.0 0.0 0.00 0.00 0.00 42 1007.9
20260509204413 72 283 0.0 0.0 0.00 0.00 0.00 42 1007.9
20260509204018 72 19 0.0 0.0 0.00 0.00 0.00 42 1007.9
20260509203914 72 15 0.0 0.0 0.00 0.00 0.00 41 1007.9
20260509203549 72 19 0.0 0.0 0.00 0.00 0.00 41 1007.9
20260509203406 73 20 0.0 0.0 0.00 0.00 0.00 42 1008.0
20260509203018 72 360 0.0 0.0 0.00 0.00 0.00 43 1008.0
20260509202925 72 281 0.0 0.0 0.00 0.00 0.00 43 1008.1
20260509202525 71 23 0.0 0.0 0.00 0.00 0.00 43 1008.0
20260509202439 71 19 0.0 0.0 0.00 0.00 0.00 43 1008.1
20260509202035 71 300 0.0 0.0 0.00 0.00 0.00 42 1008.1
20260509201907 72 5 0.0 0.0 0.00 0.00 0.00 42 1008.1
20260509201509 71 21 0.0 0.0 0.00 0.00 0.00 43 1008.2
20260509201429 71 355 0.0 0.0 0.00 0.00 0.00 43 1008.2
20260509201019 70 13 0.0 0.0 0.00 0.00 0.00 42 1008.3
20260509200857 71 22 0.0 0.0 0.00 0.00 0.00 42 1008.3
20260509200551 70 11 0.0 0.0 0.00 0.00 0.00 42 1008.4
20260509200415 71 34 0.0 0.0 0.00 0.00 0.00 42 1008.5
20260509200015 70 360 0.0 0.0 0.00 0.00 0.00 42 1008.5
20260509195907 70 34 0.0 0.0 0.00 0.00 0.00 42 1008.5
20260509195547 70 24 0.0 0.0 0.00 0.00 0.00 43 1008.4
20260509195357 70 57 0.0 0.0 0.00 0.00 0.00 42 1008.5
20260509195016 69 16 0.0 0.0 0.00 0.00 0.00 43 1008.5
20260509194921 70 317 0.0 0.0 0.00 0.00 0.00 43 1008.6
20260509194551 69 302 0.0 0.0 0.00 0.00 0.00 43 1008.5
20260509194416 69 311 0.0 0.0 0.00 0.00 0.00 42 1008.6
20260509194017 69 30 0.0 0.0 0.00 0.00 0.00 42 1008.6
20260509193907 69 9 0.0 0.0 0.00 0.00 0.00 42 1008.6
20260509193556 69 24 0.0 0.0 0.00 0.00 0.00 42 1008.7
20260509193401 69 5 0.0 0.0 0.00 0.00 0.00 42 1008.8
20260509193005 69 9 0.0 0.0 0.00 0.00 0.00 41 1008.8
20260509192919 69 40 0.0 0.0 0.00 0.00 0.00 41 1008.8
20260509192531 69 16 0.0 0.0 0.00 0.00 0.00 41 1008.8
20260509192408 69 18 0.0 0.0 0.00 0.00 0.00 41 1008.9
20260509192003 69 5 0.0 0.0 0.00 0.00 0.00 40 1008.9
20260509191901 69 360 0.0 0.0 0.00 0.00 0.00 40 1008.9
20260509191545 68 11 0.0 0.0 0.00 0.00 0.00 40 1008.8
20260509191359 69 16 0.0 0.0 0.00 0.00 0.00 40 1009.0
20260509191050 68 350 0.0 0.0 0.00 0.00 0.00 40 1009.0
20260509190859 69 5 0.0 0.0 0.00 0.00 0.00 39 1009.0
20260509190522 68 321 0.0 0.0 0.00 0.00 0.00 40 1009.0
20260509190418 68 5 0.0 0.0 0.00 0.00 0.00 40 1009.1
20260509190109 67 11 0.0 0.0 0.00 0.00 0.00 39 1009.1
20260509185912 68 11 0.0 0.0 0.00 0.00 0.00 39 1009.1
20260509185525 67 49 0.0 0.0 0.00 0.00 0.00 39 1009.2
20260509185359 67 47 0.0 0.0 0.00 0.00 0.00 39 1009.2
20260509185058 66 17 0.0 0.0 0.00 0.00 0.00 39 1009.2
20260509184913 67 5 0.0 0.0 0.00 0.00 0.00 39 1009.4
20260509184555 66 14 0.0 0.0 0.00 0.00 0.00 39 1009.3
20260509184402 67 355 0.0 0.0 0.00 0.00 0.00 38 1009.5
20260509184027 67 5 0.0 0.0 0.00 0.00 0.00 38 1009.5
20260509183947 67 16 0.0 0.0 0.00 0.00 0.00 38 1009.6
20260509183541 66 38 0.0 0.0 0.00 0.00 0.00 37 1009.5
20260509183417 67 360 0.0 0.0 0.00 0.00 0.00 37 1009.6
20260509183009 66 19 0.0 0.0 0.00 0.00 0.00 37 1009.6
20260509182914 66 271 0.0 0.0 0.00 0.00 0.00 37 1009.7
20260509182546 66 343 0.0 0.0 0.00 0.00 0.00 36 1009.7
20260509182403 66 360 0.0 0.0 0.00 0.00 0.00 36 1009.7
20260509182015 65 317 0.0 0.0 0.00 0.00 0.00 36 1009.7
20260509181925 65 348 0.0 0.0 0.00 0.00 0.00 36 1009.7
20260509181525 65 5 0.0 0.0 0.00 0.00 0.00 35 1009.7
20260509181418 65 350 0.0 0.0 0.00 0.00 0.00 35 1009.7
20260509181059 64 20 0.0 0.0 0.00 0.00 0.00 35 1009.7
20260509180911 65 30 0.0 0.0 0.00 0.00 0.00 34 1009.8
20260509180526 65 57 0.0 0.0 0.00 0.00 0.00 33 1009.7
20260509180358 65 5 0.0 0.0 0.00 0.00 0.00 32 1009.7
20260509180058 64 26 0.0 0.0 0.00 0.00 0.00 32 1009.7
20260509175920 65 53 0.0 0.0 0.00 0.00 0.00 31 1009.8
20260509175601 63 13 0.0 0.0 0.00 0.00 0.00 31 1009.8
20260509175410 64 38 0.0 0.0 0.00 0.00 0.00 31 1009.8
20260509175035 63 5 0.0 0.0 0.00 0.00 0.00 30 1009.8
20260509174859 64 10 0.0 0.0 0.00 0.00 0.00 30 1009.8
20260509174505 63 339 0.0 0.0 0.00 0.00 0.00 28 1009.8
20260509174422 63 360 0.0 0.0 0.00 0.00 0.00 28 1009.8
20260509174016 62 351 0.0 0.0 0.00 0.00 0.00 28 1009.9
20260509173854 63 34 0.0 0.0 0.00 0.00 0.00 28 1009.9
20260509173554 62 57 0.0 0.0 0.00 0.00 0.00 28 1009.9
20260509173419 63 22 0.0 0.0 0.00 0.00 0.00 27 1010.0
20260509173009 62 16 0.0 0.0 0.00 0.00 0.00 27 1010.0
20260509172923 63 26 0.0 0.0 0.00 0.00 0.00 26 1010.1
20260509172525 62 32 0.0 0.0 0.00 0.00 0.00 24 1010.1
20260509172358 62 15 0.0 0.0 0.00 0.00 0.00 23 1010.2
20260509172051 62 355 0.0 0.0 0.00 0.00 0.00 23 1010.2
20260509171941 62 27 0.0 0.0 0.00 0.00 0.00 23 1010.3
20260509171602 61 22 0.0 0.0 0.00 0.00 0.00 22 1010.4
20260509171407 62 11 0.0 0.0 0.00 0.00 0.00 21 1010.4
20260509171029 61 32 0.0 0.0 0.00 0.00 0.00 20 1010.4
20260509170901 61 355 0.0 0.0 0.00 0.00 0.00 20 1010.5
20260509170601 61 344 0.0 0.0 0.00 0.00 0.00 19 1010.5
20260509170421 61 9 0.0 0.0 0.00 0.00 0.00 18 1010.6
20260509170030 60 22 0.0 0.0 0.00 0.00 0.00 16 1010.4
20260509165919 61 58 0.0 0.0 0.00 0.00 0.00 14 1010.5
20260509165600 60 9 0.0 0.0 0.00 0.00 0.00 14 1010.5
20260509165406 60 32 0.0 0.0 0.00 0.00 0.00 15 1010.6
20260509165031 59 29 0.0 0.0 0.00 0.00 0.00 12 1010.6
20260509164927 60 19 0.0 0.0 0.00 0.00 0.00 12 1010.6
20260509164600 59 342 0.0 0.0 0.00 0.00 0.00 11 1010.6
20260509164414 60 13 0.0 0.0 0.00 0.00 0.00 11 1010.7
20260509164035 59 28 0.0 0.0 0.00 0.00 0.00 9 1010.8
20260509163906 59 360 0.0 0.0 0.00 0.00 0.00 8 1010.8
20260509163503 58 350 0.0 0.0 0.00 0.00 0.00 6 1010.8
20260509163429 59 40 0.0 0.0 0.00 0.00 0.00 5 1010.8
20260509163008 58 22 0.0 0.0 0.00 0.00 0.00 5 1010.8
20260509162858 58 22 0.0 0.0 0.00 0.00 0.00 6 1010.9
20260509162535 58 19 0.0 0.0 0.00 0.00 0.00 5 1011.1
20260509162417 58 23 0.0 0.0 0.00 0.00 0.00 5 1011.1
20260509162042 58 34 0.0 0.0 0.00 0.00 0.00 3 1011.1
20260509161902 58 18 0.0 0.0 0.00 0.00 0.00 100 1011.1
20260509161511 57 63 0.0 0.0 0.00 0.00 0.00 100 1011.2
20260509161422 58 53 0.0 0.0 0.00 0.00 0.00 100 1011.2
20260509161041 57 28 0.0 0.0 0.00 0.00 0.00 100 1011.2
20260509160913 57 348 0.0 0.0 0.00 0.00 0.00 100 1011.2
20260509160509 56 41 0.0 0.0 0.00 0.00 0.00 100 1011.2
20260509160402 57 21 0.0 0.0 0.00 0.00 0.00 100 1011.3
20260509160037 56 343 0.0 0.0 0.00 0.00 0.00 100 1011.2
20260509155919 56 5 0.0 0.0 0.00 0.00 0.00 100 1011.3
20260509155550 55 13 0.0 0.0 0.00 0.00 0.00 100 1011.2
20260509155411 56 26 0.0 0.0 0.00 0.00 0.00 100 1011.2
20260509155011 55 22 0.0 0.0 0.00 0.00 0.00 100 1011.1
20260509154900 56 41 0.0 0.0 0.00 0.00 0.00 100 1011.2
20260509154550 55 355 0.0 0.0 0.00 0.00 0.00 100 1011.2
20260509154420 55 37 0.0 0.0 0.00 0.00 0.00 100 1011.2
20260509154011 54 32 0.0 0.0 0.00 0.00 0.00 100 1011.2
20260509153909 55 17 0.0 0.0 0.00 0.00 0.00 100 1011.2
20260509153545 54 35 0.0 0.0 0.00 0.00 0.00 100 1011.2
20260509153402 54 63 0.0 0.0 0.00 0.00 0.00 100 1011.3
20260509153021 54 26 0.0 0.0 0.00 0.00 0.00 100 1011.3
20260509152928 54 45 0.0 0.0 0.00 0.00 0.00 100 1011.4
20260509152533 54 15 0.0 0.0 0.00 0.00 0.00 100 1011.4